Погода в Малых Калмашах

Россия / Удмуртская Республика     56°11′06″N   53°54′11″E
темп.,
°C
ветер,
м/с
пор.,
м/с
влажн.,
%
обл.,
%
осадки,
мм/ч
давл.,
гПа
погр.,
м
6 марта, сб
сб601:00−14зюз47960 0.0 1007111
04:00−14юз479717 0.0 1009126
07:00−13зюз489697 0.1 1009213
10:00−11з359498 0.6 1010335
13:00−9зсз3586100 0.2 1011630
16:00−10з368678 0.2 1011479
19:00−15з23892 0.0 101222
22:00−16з239644 0.0 101324
7 марта, вс
вс701:00−19з229841 0.0 101220
04:00−21зюз1210032 0.0 101320
07:00−20юз1210090 0.0 101120
10:00−16юз129492 0.1 1011154
13:00−13юз229093 0.0 1010312
16:00−13ююз239397 0.1 1009238
19:00−17ю239851 0.0 100920
22:00−18ююв339961 0.0 100834
8 марта, пн
пн801:00−16ююв489796 0.1 1006179
04:00−15ююв6109598 0.1 1003310
07:00−12ююв61194100 1.1 1000564
10:00−8ю71294100 2.1 999765
13:00−5зюз6108067 0.4 999842
16:00−5юз5108450 0.4 1000659
19:00−9ю358882 0.0 100094
22:00−9вюв489391 0.1 998214
9 марта, вт
вт901:00−4ююв71496100 3.6 993886
04:00−10ююз81491100 5.0 992663
07:00−8з10169295 0.8 9941107
10:00−10з8139097 0.9 998504
13:00−7зюз71089100 0.1 1002873
16:00−7зюз6989100 0.2 1005749
19:00−11зюз499497 0.2 1007254
22:00−13з379697 0.3 1009159
10 марта, ср
ср1001:00−16з339783 0.1 101058
04:00−16з239789 0.2 101165
07:00−17зсз239791 0.1 101138
10:00−15ссз359494 0.2 1012319
13:00−14ссз4591100 0.1 1012420
16:00−15ссз4690100 0.2 1013497
19:00−17ссз3795100 0.1 1014235
22:00−18ссз239798 0.1 101660